Lid_Strength_Index
13 14 14 13 13 13 13 13 13 13 12 12 11 11 11 11 11 10 10 10 10 10 9 9 9 8 8 8 8 7 7 6 8 7 5 5 6 6 5 5 5 4 5
14 14 13 13 13 14 14 13 13 13 12 12 12 12 12 12 11 11 11 10 10 10 10 10 10 9 9 8 8 8 7 6 7 8 7 6 6 5 4 5 4 4 6
14 14 14 14 14 14 14 14 13 13 13 12 12 13 13 12 12 12 11 10 10 10 10 10 9 9 9 9 8 8 7 7 7 7 8 7 6 5 6 6 6 7 6
14 14 14 14 14 14 14 14 13 13 13 13 13 13 13 13 13 13 12 11 11 10 10 11 10 10 10 10 9 9 8 8 8 8 8 8 6 6 7 6 6 8 8
14 15 14 14 14 14 14 14 14 13 13 13 13 14 14 14 13 12 11 10 11 12 12 12 11 11 11 10 10 10 9 9 9 9 9 9 8 8 8 6 6 7 8
15 15 17 17 17 17 15 15 14 13 13 13 14 15 15 14 12 11 10 11 12 14 14 14 13 12 11 10 10 9 8 10 10 10 10 10 9 8 6 7 6 8 8
16 18 18 19 18 17 16 16 16 13 12 12 13 15 17 17 13 11 10 11 13 14 14 14 13 12 12 11 10 9 10 9 8 9 10 9 9 7 6 7 7 7 7
19 19 20 20 19 18 16 15 14 12 13 13 14 18 19 17 13 12 11 12 13 15 15 15 13 14 12 11 11 12 13 11 10 10 10 10 9 8 7 7 6 8 9
19 19 19 19 18 17 16 16 13 13 13 13 13 18 20 20 14 12 11 12 13 15 15 16 15 13 11 10 12 14 14 14 12 11 9 8 7 7 7 7 8 8 10
17 18 19 19 18 16 17 15 13 14 13 13 13 15 21 21 15 13 13 12 14 14 16 15 13 13 10 10 12 14 15 14 14 13 13 13 12 12 10 7 7 8 10
17 18 19 19 17 16 15 14 18 14 13 14 16 20 22 21 19 13 12 14 15 14 16 16 15 12 11 11 12 13 13 13 15 15 15 14 13 14 13 12 10 9 10
16 16 17 18 16 16 17 19 18 14 14 15 20 19 19 20 16 13 12 13 13 15 16 17 16 13 12 12 13 12 13 15 15 15 16 16 16 15 14 14 13 13 13
17 17 18 18 17 16 16 17 14 14 16 17 18 19 20 18 18 13 13 13 14 17 16 16 15 15 14 16 14 14 18 18 17 17 18 17 16 15 14 14 14 14 15
16 17 18 18 18 17 15 15 15 16 17 18 18 19 20 20 19 18 17 18 16 17 17 20 17 17 16 17 18 19 19 19 19 19 18 18 16 16 16 15 15 16 17
14 16 17 17 17 17 16 15 15 16 16 17 17 18 20 21 18 13 15 18 20 17 25 25 23 22 22 21 21 21 21 21 21 20 20 19 18 17 18 16 16 17 18
14 15 16 16 17 17 16 17 12 12 12 11 11 15 17 14 13 12 13 13 14 16 26 29 25 24 24 24 24 24 23 23 23 21 20 20 21 19 19 18 18 19 19
13 14 15 16 16 17 17 16 17 17 11 11 11 10 12 13 12 13 14 15 15 19 30 31 29 27 26 26 26 26 26 25 26 25 24 22 20 20 20 20 19 20 22
12 12 14 15 15 16 16 16 16 16 16 16 12 11 11 11 12 13 14 18 26 27 33 32 32 31 30 29 29 30 29 28 27 26 25 25 25 23 22 22 22 22 22
13 12 13 14 15 16 16 17 17 17 17 19 21 15 14 11 12 12 13 26 29 31 34 33 34 33 32 33 32 32 31 30 30 29 29 27 27 24 25 25 24 23 23
13 13 14 14 15 16 16 17 17 16 17 17 18 16 24 20 19 23 29 31 31 31 31 32 35 36 36 35 35 34 31 30 30 29 30 29 29 28 27 27 26 25 26
13 14 14 15 15 15 16 17 17 16 16 17 17 18 17 17 19 22 24 29 28 29 28 30 34 36 38 38 37 35 33 33 34 33 32 32 31 30 30 27 27 28 27
13 14 15 15 15 16 16 16 17 16 16 17 18 20 13 19 21 22 24 24 26 30 30 28 31 32 33 33 33 34 33 34 36 34 32 32 31 30 29 29 29 30 29
14 14 15 15 15 16 16 16 17 17 16 17 18 19 17 16 20 21 22 25 27 29 32 29 30 34 38 37 37 34 31 33 33 34 31 32 31 31 31 31 31 32 33
15 15 15 15 16 17 16 17 17 17 17 17 18 18 18 16 19 21 22 25 27 31 32 30 29 29 33 37 38 38 38 37 36 33 31 29 31 32 32 34 33 35 31
17 16 15 15 16 16 16 16 17 17 17 17 17 18 17 17 19 21 23 24 26 28 30 31 30 29 29 31 34 34 32 31 35 33 32 31 31 33 33 34 38 35 36
20 18 15 15 16 16 16 16 17 17 17 17 17 17 18 17 18 20 22 24 25 26 28 30 29 29 28 29 30 30 29 28 31 31 31 30 31 34 33 34 36 35 35